Millington, TN

4:39 PM CDT on May 22, 2017 (GMT -0500)
Millington Municipal

Weather History for KNQA - March, 2014

Change the Weather History Date:

Wednesday, March 12, 2014

  Actual Average Record
Temperature  
Mean Temperature 52 °F -  
Max Temperature 64 °F 57 °F 82 °F (2006)
Min Temperature 41 °F 40 °F 19 °F (1998)
Degree Days  
Heating Degree Days 12    
Growing Degree Days 2 (Base 50)    
Moisture  
Dew Point 43 °F    
Average Humidity 68    
Maximum Humidity 94    
Minimum Humidity 35    
Precipitation  
Precipitation 0.00 in - - ()
Sea Level Pressure  
Sea Level Pressure 29.84 in    
Wind  
Wind Speed 13 mph (West)    
Max Wind Speed 25 mph    
Max Gust Speed 34 mph    
Visibility 10 miles    
Events      
Averages and records for this station are not official NWS values.
T = Trace of Precipitation, MM = Missing Value Source: NWS Daily Summary

Daily Weather History Graph

Daily Weather History Graph

Search for Another Location

Airport or City:

Trip Planner

Search our weather history database for the weather conditions in past years. The results will help you decide how hot, cold, wet, or windy it might be!

Date:

Astronomy

Mar. 12, 2014 Rise Set
Actual Time 7:14 AM CDT 7:04 PM CDT
Civil Twilight 6:48 AM CDT 7:29 PM CDT
Nautical Twilight 6:19 AM CDT 7:59 PM CDT
Astronomical Twilight 5:49 AM CDT 8:29 PM CDT
Moon 3:41 PM CDT (3/12) 4:39 AM CDT (3/12)
Length of Visible Light 12h 40m
Length of Day
11h 50m
Waxing Gibbous, 85% of the Moon is Illuminated
Mar 12
Waxing Gibbous
Mar 16
Full
Mar 23
Last Quarter
Mar 30
New
Apr 7
First Quarter

Hourly Weather History & Observations

Time (CDT) Temp. Windchill Dew Point Humidity Pressure Visibility Wind Dir Wind Speed Gust Speed Precip Events Conditions
12:50 AM 64.4 °F - 60.8 °F 88% 29.58 in 10.0 mi South 5.8 mph - N/A   Mostly Cloudy
1:50 AM 64.4 °F - 60.8 °F 88% 29.57 in 10.0 mi SSW 12.7 mph - N/A   Mostly Cloudy
2:15 AM 64.4 °F - 60.8 °F 88% 29.57 in 10.0 mi SSW 10.4 mph - N/A   Mostly Cloudy
2:35 AM 64.4 °F - 60.8 °F 88% 29.57 in 10.0 mi SW 11.5 mph - N/A   Scattered Clouds
2:55 AM 64.4 °F - 60.8 °F 88% 29.57 in 10.0 mi SSW 11.5 mph - N/A   Mostly Cloudy
3:15 AM 64.4 °F - 60.8 °F 88% 29.56 in 10.0 mi SW 11.5 mph - N/A   Mostly Cloudy
3:35 AM 62.6 °F - 60.8 °F 94% 29.56 in 10.0 mi SW 15.0 mph - N/A   Mostly Cloudy
3:55 AM 62.6 °F - 60.8 °F 94% 29.55 in 10.0 mi SW 15.0 mph - N/A   Mostly Cloudy
4:15 AM 64.4 °F - 60.8 °F 88% 29.57 in 10.0 mi SW 18.4 mph - N/A   Overcast
4:35 AM 64.4 °F - 60.8 °F 88% 29.57 in 10.0 mi WSW 18.4 mph - N/A   Overcast
4:55 AM 64.4 °F - 60.8 °F 88% 29.59 in 10.0 mi West 18.4 mph - N/A   Overcast
5:30 AM 57.2 °F - 50.0 °F 77% 29.65 in 10.0 mi WNW 18.4 mph - N/A   Overcast
5:53 AM 53.6 °F - 46.4 °F 77% 29.69 in 10.0 mi NW 25.3 mph 34.5 mph N/A   Overcast
6:50 AM 48.2 °F - 42.8 °F 82% 29.76 in 10.0 mi WNW 21.9 mph - N/A   Overcast
7:54 AM 46.4 °F 38.5 °F 37.4 °F 71% 29.82 in 10.0 mi NW 21.9 mph 32.2 mph N/A   Overcast
8:50 AM 46.4 °F 39.0 °F 35.6 °F 66% 29.88 in 10.0 mi NW 19.6 mph 28.8 mph N/A   Overcast
9:50 AM 46.4 °F 38.5 °F 35.6 °F 66% 29.92 in 10.0 mi NNW 21.9 mph 27.6 mph N/A   Overcast
10:53 AM 46.4 °F 39.5 °F 35.6 °F 66% 29.96 in 10.0 mi SW 17.3 mph - N/A   Overcast
11:50 AM 48.2 °F - 35.6 °F 62% 30.00 in 10.0 mi NW 19.6 mph - N/A   Overcast
12:50 PM 46.4 °F 39.0 °F 33.8 °F 62% 30.02 in 10.0 mi NW 19.6 mph 32.2 mph N/A   Overcast
1:50 PM 48.2 °F - 32.0 °F 54% 30.03 in 10.0 mi NW 19.6 mph - N/A   Overcast
2:50 PM 51.8 °F - 32.0 °F 47% 30.03 in 10.0 mi NNW 17.3 mph - N/A   Mostly Cloudy
3:50 PM 53.6 °F - 30.2 °F 41% 30.05 in 10.0 mi North 18.4 mph - N/A   Mostly Cloudy
4:50 PM 53.6 °F - 26.6 °F 35% 30.06 in 10.0 mi NW 18.4 mph - N/A   Scattered Clouds
5:50 PM 53.6 °F - 26.6 °F 35% 30.07 in 10.0 mi NW 12.7 mph - N/A   Scattered Clouds
6:50 PM 50.0 °F - 24.8 °F 37% 30.09 in 10.0 mi NNW 12.7 mph - N/A   Partly Cloudy
7:55 PM 46.4 °F 40.7 °F 24.8 °F 43% 30.11 in 10.0 mi NW 12.7 mph - N/A   Partly Cloudy
8:55 PM 44.6 °F 41.4 °F 28.4 °F 53% 30.14 in 10.0 mi NNW 5.8 mph - N/A   Clear
9:50 PM 42.8 °F 41.1 °F 26.6 °F 53% 30.16 in 10.0 mi WNW 3.5 mph - N/A   Clear
10:50 PM 41.0 °F - 26.6 °F 57% 30.18 in 10.0 mi Calm Calm - N/A   Clear
11:50 PM 41.0 °F - 26.6 °F 57% 30.17 in 10.0 mi Calm Calm - N/A   Clear